EW8714 Weather Reports


Display with metric or nautical units.
time (UTC)temp
F
wind
direction
speed
MPH
gust
MPH
rain 1hr
in
rain 24hr
in
rain mn
in
humidity
%
barometer
mb
20260510061513 48 359 0.0 2.0 0.00 0.00 0.00 81 1024.1
20260510061010 48 359 0.0 3.0 0.00 0.00 0.00 81 1023.9
20260510060509 48 359 0.0 5.0 0.00 0.00 0.00 81 1023.9
20260510060023 48 359 1.0 5.0 0.00 0.00 0.00 81 1024.0
20260510055512 48 359 1.0 5.0 0.00 0.00 0.00 81 1024.0
20260510055015 48 360 0.0 1.0 0.00 0.00 0.00 80 1024.0
20260510054516 48 360 0.0 1.0 0.00 0.00 0.00 79 1023.9
20260510054014 48 360 0.0 1.0 0.00 0.00 0.00 79 1023.9
20260510053511 48 360 0.0 2.0 0.00 0.00 0.00 78 1023.7
20260510053022 48 360 0.0 2.0 0.00 0.00 0.00 78 1023.6
20260510052514 49 360 0.0 4.0 0.00 0.00 0.00 77 1023.7
20260510052015 49 360 1.0 4.0 0.00 0.00 0.00 78 1023.7
20260510051520 49 356 1.0 5.0 0.00 0.00 0.00 78 1023.9
20260510051012 49 360 1.0 5.0 0.00 0.00 0.00 78 1024.2
20260510050513 49 360 2.0 5.0 0.00 0.00 0.00 77 1024.3
20260510050013 49 360 2.0 5.0 0.00 0.00 0.00 77 1024.2
20260510045513 50 18 1.0 5.0 0.00 0.00 0.00 76 1024.2
20260510045012 50 16 2.0 5.0 0.00 0.00 0.00 76 1024.1
20260510044533 50 18 1.0 5.0 0.00 0.00 0.00 76 1024.0
20260510044016 50 15 1.0 4.0 0.00 0.00 0.00 76 1023.9
20260510043515 50 13 1.0 4.0 0.00 0.00 0.00 76 1024.0
20260510043014 50 13 0.0 4.0 0.00 0.00 0.00 76 1024.0
20260510042513 50 12 0.0 4.0 0.00 0.00 0.00 76 1023.9
20260510042013 50 12 0.0 4.0 0.00 0.00 0.00 76 1024.0
20260510041514 50 12 0.0 4.0 0.00 0.00 0.00 76 1024.0
20260510041014 50 12 1.0 4.0 0.00 0.00 0.00 76 1024.0
20260510040516 50 11 0.0 7.0 0.00 0.00 0.00 76 1023.9
20260510040030 50 11 3.0 7.0 0.00 0.00 0.00 75 1023.8
20260510035516 50 43 2.0 6.0 0.00 0.00 0.00 75 1023.9
20260510035018 50 41 1.0 11.0 0.00 0.00 0.00 73 1023.9
20260510034516 51 43 4.0 11.0 0.00 0.00 0.00 71 1023.8
20260510034015 51 4 4.0 9.0 0.00 0.00 0.00 69 1023.7
20260510033513 51 27 2.0 10.0 0.00 0.00 0.00 69 1023.5
20260510033022 51 360 5.0 10.0 0.00 0.00 0.00 69 1023.5
20260510032518 51 1 5.0 10.0 0.00 0.00 0.00 69 1023.5
20260510032023 51 360 4.0 10.0 0.00 0.00 0.00 69 1023.3
20260510031520 51 359 4.0 10.0 0.00 0.00 0.00 70 1023.2
20260510031018 51 5 5.0 13.0 0.00 0.00 0.00 69 1023.0
20260510030528 51 360 6.0 12.0 0.00 0.00 0.00 69 1022.7
20260510030018 51 1 5.0 11.0 0.00 0.00 0.00 69 1022.4
20260510025517 51 1 5.0 12.0 0.00 0.00 0.00 69 1022.2
20260510025018 51 1 6.0 12.0 0.00 0.00 0.00 69 1022.0
20260510024520 52 1 5.0 12.0 0.00 0.00 0.00 69 1021.6
20260510024018 52 359 5.0 12.0 0.00 0.00 0.00 70 1021.3
20260510023519 52 309 5.0 12.0 0.00 0.00 0.00 71 1021.0
20260510023019 51 76 5.0 13.0 0.00 0.00 0.00 71 1020.5
20260510022518 52 1 6.0 16.0 0.00 0.00 0.00 71 1020.2
20260510022018 52 358 7.0 16.0 0.00 0.00 0.00 70 1020.1
20260510021520 52 360 6.0 15.0 0.00 0.00 0.00 70 1019.9
20260510021119 52 359 6.0 17.0 0.00 0.00 0.00 70 1019.8
20260510020519 53 13 7.0 17.0 0.00 0.00 0.00 69 1019.6
20260510020021 53 360 8.0 18.0 0.00 0.00 0.00 69 1019.2
20260510015516 53 34 8.0 18.0 0.00 0.00 0.00 69 1019.0
20260510015021 53 360 8.0 21.0 0.00 0.00 0.00 68 1018.9
20260510014514 54 6 11.0 23.0 0.00 0.00 0.00 68 1018.9
20260510014013 54 360 10.0 23.0 0.00 0.00 0.00 67 1018.7
20260510013513 54 360 8.0 22.0 0.00 0.00 0.00 66 1018.5
20260510013016 55 33 10.0 22.0 0.00 0.00 0.00 65 1018.2
20260510012519 55 47 9.0 22.0 0.00 0.00 0.00 63 1017.9
20260510012015 56 13 9.0 24.0 0.00 0.00 0.00 62 1017.7
20260510011519 56 130 11.0 24.0 0.00 0.00 0.00 60 1017.6
20260510011015 57 2 9.0 23.0 0.00 0.00 0.00 58 1017.4
20260510010515 58 360 9.0 19.0 0.00 0.00 0.00 56 1017.2
20260510010022 59 1 9.0 21.0 0.00 0.00 0.00 54 1017.0
20260510005516 59 354 8.0 21.0 0.00 0.00 0.00 54 1016.7
20260510005015 60 4 9.0 19.0 0.00 0.00 0.00 53 1016.4
20260510004520 60 347 10.0 23.0 0.00 0.00 0.00 51 1015.9
20260510004019 62 359 11.0 23.0 0.00 0.00 0.00 47 1015.6
20260510003518 66 359 10.0 21.0 0.00 0.00 0.00 41 1015.1
20260510003018 72 360 10.0 21.0 0.00 0.00 0.00 30 1015.1
20260510002516 73 56 3.0 7.0 0.00 0.00 0.00 23 1014.0
20260510002020 73 50 2.0 7.0 0.00 0.00 0.00 23 1013.6
20260510001521 73 47 4.0 7.0 0.00 0.00 0.00 23 1013.5
20260510001020 73 59 3.0 9.0 0.00 0.00 0.00 24 1013.4
20260510000520 73 62 2.0 9.0 0.00 0.00 0.00 24 1013.4
20260510000020 73 33 4.0 11.0 0.00 0.00 0.00 23 1013.3
20260509235520 74 63 5.0 11.0 0.00 0.00 0.00 23 1013.2
20260509235024 74 15 3.0 10.0 0.00 0.00 0.00 24 1013.2
20260509234530 75 36 4.0 10.0 0.00 0.00 0.00 23 1013.0
20260509234019 75 65 3.0 9.0 0.00 0.00 0.00 24 1013.0
20260509233520 74 54 5.0 9.0 0.00 0.00 0.00 21 1012.9
20260509233023 75 21 4.0 9.0 0.00 0.00 0.00 22 1012.8
20260509232525 74 15 3.0 9.0 0.00 0.00 0.00 22 1012.7
20260509232022 75 37 5.0 9.0 0.00 0.00 0.00 22 1012.7
20260509231521 74 65 3.0 10.0 0.00 0.00 0.00 22 1012.7
20260509231025 74 75 2.0 10.0 0.00 0.00 0.00 23 1012.7
20260509230520 74 25 5.0 9.0 0.00 0.00 0.00 22 1012.7
20260509230026 74 48 4.0 9.0 0.00 0.00 0.00 22 1012.6
20260509225528 75 63 3.0 9.0 0.00 0.00 0.00 21 1012.7
20260509225024 74 53 2.0 11.0 0.00 0.00 0.00 22 1012.8
20260509224524 74 54 4.0 11.0 0.00 0.00 0.00 21 1012.6
20260509224024 75 44 3.0 10.0 0.00 0.00 0.00 20 1012.5
20260509223524 75 98 4.0 13.0 0.00 0.00 0.00 21 1012.4
20260509223025 75 56 5.0 13.0 0.00 0.00 0.00 22 1012.5
20260509222524 75 32 3.0 10.0 0.00 0.00 0.00 21 1012.4
20260509222024 76 110 4.0 11.0 0.00 0.00 0.00 22 1012.4
20260509221508 75 28 4.0 13.0 0.00 0.00 0.00 23 1012.5
20260509221008 75 41 4.0 13.0 0.00 0.00 0.00 23 1012.4
20260509220508 74 70 4.0 12.0 0.00 0.00 0.00 21 1012.5
20260509220009 75 359 6.0 14.0 0.00 0.00 0.00 22 1012.5
20260509215507 75 40 5.0 14.0 0.00 0.00 0.00 21 1012.5
20260509215007 76 29 5.0 16.0 0.00 0.00 0.00 21 1012.6
20260509214509 76 50 7.0 16.0 0.00 0.00 0.00 19 1012.5
20260509214009 77 6 4.0 11.0 0.00 0.00 0.00 20 1012.7
20260509213509 75 63 5.0 11.0 0.00 0.00 0.00 20 1012.6
20260509213033 76 51 5.0 12.0 0.00 0.00 0.00 19 1012.7
20260509212536 75 59 6.0 14.0 0.00 0.00 0.00 19 1012.7
20260509212034 76 49 7.0 13.0 0.00 0.00 0.00 19 1012.8
20260509211517 76 68 6.0 11.0 0.00 0.00 0.00 20 1012.8
20260509211018 76 24 4.0 9.0 0.00 0.00 0.00 21 1012.9
20260509210517 76 107 4.0 9.0 0.00 0.00 0.00 22 1013.0
20260509210023 77 47 6.0 9.0 0.00 0.00 0.00 19 1012.9
20260509205520 77 18 4.0 11.0 0.00 0.00 0.00 20 1013.0
20260509205023 76 46 3.0 14.0 0.00 0.00 0.00 20 1013.0
20260509204518 76 46 5.0 14.0 0.00 0.00 0.00 19 1013.1
20260509204018 76 8 1.0 10.0 0.00 0.00 0.00 21 1013.3
20260509203518 75 359 3.0 10.0 0.00 0.00 0.00 22 1013.3
20260509203019 74 72 3.0 9.0 0.00 0.00 0.00 20 1013.4
20260509202517 75 53 4.0 9.0 0.00 0.00 0.00 20 1013.5
20260509202017 74 40 3.0 8.0 0.00 0.00 0.00 21 1013.5
20260509201519 74 53 5.0 9.0 0.00 0.00 0.00 20 1013.6
20260509201019 75 31 5.0 9.0 0.00 0.00 0.00 20 1013.7
20260509200519 75 28 3.0 13.0 0.00 0.00 0.00 20 1013.7
20260509200022 76 360 4.0 13.0 0.00 0.00 0.00 20 1013.9
20260509195525 76 14 2.0 7.0 0.00 0.00 0.00 20 1013.8
20260509195020 75 354 4.0 7.0 0.00 0.00 0.00 23 1013.9
20260509194523 75 86 3.0 9.0 0.00 0.00 0.00 22 1013.9
20260509194024 74 16 3.0 11.0 0.00 0.00 0.00 22 1013.8
20260509193525 74 40 4.0 11.0 0.00 0.00 0.00 24 1013.8
20260509193033 73 103 3.0 11.0 0.00 0.00 0.00 23 1013.8
20260509192524 75 78 3.0 13.0 0.00 0.00 0.00 24 1013.9
20260509192027 75 56 5.0 13.0 0.00 0.00 0.00 20 1013.9
20260509191524 75 360 2.0 7.0 0.00 0.00 0.00 22 1014.0
20260509191022 75 360 3.0 10.0 0.00 0.00 0.00 22 1014.0
20260509190523 74 36 4.0 10.0 0.00 0.00 0.00 25 1014.0
20260509190029 74 52 5.0 10.0 0.00 0.00 0.00 22 1014.1
20260509185525 75 4 4.0 10.0 0.00 0.00 0.00 22 1014.0
20260509185025 75 1 1.0 7.0 0.00 0.00 0.00 22 1014.0
20260509184533 74 359 1.0 9.0 0.00 0.00 0.00 23 1014.1
20260509184022 74 359 4.0 9.0 0.00 0.00 0.00 23 1014.2
20260509183521 74 1 5.0 9.0 0.00 0.00 0.00 24 1014.1
20260509183006 73 26 3.0 8.0 0.00 0.00 0.00 22 1014.1
20260509182505 73 6 3.0 11.0 0.00 0.00 0.00 23 1014.1
20260509182005 73 40 3.0 11.0 0.00 0.00 0.00 25 1014.2
20260509181505 73 359 4.0 10.0 0.00 0.00 0.00 24 1014.2
20260509181005 73 18 4.0 11.0 0.00 0.00 0.00 26 1014.2
20260509180505 73 76 3.0 11.0 0.00 0.00 0.00 25 1014.2
20260509180029 74 39 3.0 8.0 0.00 0.00 0.00 24 1014.3
20260509175526 73 26 3.0 11.0 0.00 0.00 0.00 24 1014.2
20260509175029 73 89 4.0 10.0 0.00 0.00 0.00 26 1014.2
20260509174512 72 97 3.0 9.0 0.00 0.00 0.00 28 1014.2
20260509174009 72 37 5.0 11.0 0.00 0.00 0.00 26 1014.3
20260509173506 71 1 3.0 11.0 0.00 0.00 0.00 26 1014.3
20260509173005 72 8 4.0 11.0 0.00 0.00 0.00 26 1014.4
20260509172505 72 8 5.0 11.0 0.00 0.00 0.00 27 1014.4
20260509172005 72 7 4.0 11.0 0.00 0.00 0.00 28 1014.3
20260509171517 71 58 5.0 12.0 0.00 0.00 0.00 28 1014.2
20260509171009 71 46 6.0 12.0 0.00 0.00 0.00 28 1014.2
20260509170509 71 38 7.0 12.0 0.00 0.00 0.00 29 1014.2
20260509170010 71 33 5.0 10.0 0.00 0.00 0.00 30 1014.2
20260509165506 71 28 5.0 10.0 0.00 0.00 0.00 28 1014.3
20260509165006 72 30 5.0 8.0 0.00 0.00 0.00 28 1014.3
20260509164506 73 55 4.0 7.0 0.00 0.00 0.00 20 1014.2
20260509164007 73 22 3.0 8.0 0.00 0.00 0.00 20 1014.2
20260509163506 72 60 3.0 8.0 0.00 0.00 0.00 21 1014.2
20260509163009 73 47 3.0 8.0 0.00 0.00 0.00 21 1014.2
20260509162509 73 1 2.0 8.0 0.00 0.00 0.00 22 1014.2
20260509162007 72 268 1.0 5.0 0.00 0.00 0.00 22 1014.2
20260509161509 72 268 0.0 5.0 0.00 0.00 0.00 23 1014.1
20260509161008 72 308 1.0 4.0 0.00 0.00 0.00 22 1014.2
20260509160508 72 345 2.0 4.0 0.00 0.00 0.00 23 1014.1
20260509160016 72 300 1.0 5.0 0.00 0.00 0.00 24 1014.2
20260509155508 71 297 0.0 5.0 0.00 0.00 0.00 23 1014.1
20260509155010 71 283 2.0 4.0 0.00 0.00 0.00 24 1014.0
20260509154511 70 280 0.0 6.0 0.00 0.00 0.00 24 1014.0
20260509154011 70 280 2.0 6.0 0.00 0.00 0.00 25 1014.1
20260509153511 69 271 1.0 6.0 0.00 0.00 0.00 24 1014.1
20260509153010 69 272 0.0 7.0 0.00 0.00 0.00 26 1014.2
20260509152509 69 238 3.0 10.0 0.00 0.00 0.00 27 1014.2
20260509152008 69 264 5.0 10.0 0.00 0.00 0.00 27 1014.3
20260509151512 68 240 2.0 6.0 0.00 0.00 0.00 30 1014.4
20260509151010 68 257 2.0 5.0 0.00 0.00 0.00 29 1014.3
20260509150509 67 293 2.0 5.0 0.00 0.00 0.00 31 1014.3
20260509150012 66 240 0.0 6.0 0.00 0.00 0.00 38 1014.2
20260509145510 65 239 3.0 6.0 0.00 0.00 0.00 38 1014.3
20260509145008 64 238 2.0 6.0 0.00 0.00 0.00 41 1014.4
20260509144517 63 360 2.0 4.0 0.00 0.00 0.00 47 1014.4
20260509144011 62 1 0.0 3.0 0.00 0.00 0.00 47 1014.4
20260509143512 62 3 0.0 0.0 0.00 0.00 0.00 48 1014.4
20260509143014 61 4 0.0 0.0 0.00 0.00 0.00 49 1014.4
20260509142511 60 4 0.0 0.0 0.00 0.00 0.00 52 1014.4
20260509142011 58 4 0.0 0.0 0.00 0.00 0.00 56 1014.2
20260509141519 57 4 0.0 2.0 0.00 0.00 0.00 57 1014.1
20260509141010 56 4 0.0 2.0 0.00 0.00 0.00 60 1014.1
20260509140509 56 3 0.0 1.0 0.00 0.00 0.00 60 1014.1
20260509140013 55 3 0.0 5.0 0.00 0.00 0.00 61 1014.2
20260509135513 55 3 0.0 5.0 0.00 0.00 0.00 61 1014.2
20260509135014 55 1 0.0 4.0 0.00 0.00 0.00 56 1014.3
20260509134512 55 360 0.0 0.0 0.00 0.00 0.00 59 1014.2
20260509134011 54 360 0.0 0.0 0.00 0.00 0.00 60 1014.0
20260509133511 54 360 0.0 0.0 0.00 0.00 0.00 58 1014.0
20260509133011 53 360 0.0 1.0 0.00 0.00 0.00 62 1013.9
20260509132511 53 360 0.0 1.0 0.00 0.00 0.00 61 1013.9
20260509132012 53 360 0.0 0.0 0.00 0.00 0.00 63 1013.9
20260509131520 53 360 0.0 0.0 0.00 0.00 0.00 60 1013.9
20260509131017 53 360 0.0 0.0 0.00 0.00 0.00 59 1013.8
20260509130513 52 1 0.0 5.0 0.00 0.00 0.00 59 1013.6
20260509130013 52 1 0.0 5.0 0.00 0.00 0.00 59 1013.6
20260509125514 52 211 0.0 2.0 0.00 0.00 0.00 60 1013.4
20260509125013 51 209 0.0 2.0 0.00 0.00 0.00 59 1013.2
20260509124513 50 209 1.0 4.0 0.00 0.00 0.00 66 1013.2
20260509124011 50 209 2.0 4.0 0.00 0.00 0.00 66 1013.2
20260509123510 49 209 2.0 3.0 0.00 0.00 0.00 68 1013.2
20260509123015 49 209 1.0 3.0 0.00 0.00 0.00 68 1013.2
20260509122515 49 209 1.0 3.0 0.00 0.00 0.00 68 1013.0
20260509122014 49 209 1.0 3.0 0.00 0.00 0.00 67 1012.9
20260509121522 48 209 1.0 5.0 0.00 0.00 0.00 67 1012.9
20260509121013 48 209 1.0 5.0 0.00 0.00 0.00 67 1012.8
20260509120511 48 209 3.0 5.0 0.00 0.00 0.00 67 1012.7
20260509120016 49 207 3.0 4.0 0.00 0.00 0.00 62 1012.8
20260509115515 50 207 0.0 3.0 0.00 0.00 0.00 61 1012.8
20260509115015 50 207 0.0 5.0 0.00 0.00 0.00 60 1012.7
20260509114516 49 207 1.0 5.0 0.00 0.00 0.00 64 1012.6
20260509114016 47 207 3.0 5.0 0.00 0.00 0.00 69 1012.5
20260509113515 45 207 2.0 4.0 0.00 0.00 0.00 73 1012.5
20260509113013 46 207 1.0 3.0 0.00 0.00 0.00 71 1012.4
20260509112512 47 207 2.0 3.0 0.00 0.00 0.00 68 1012.4
20260509112012 49 207 0.0 2.0 0.00 0.00 0.00 68 1012.3
20260509111517 49 207 0.0 1.0 0.00 0.00 0.00 69 1012.3
20260509111017 50 207 0.0 2.0 0.00 0.00 0.00 69 1012.3
20260509110517 49 207 0.0 3.0 0.00 0.00 0.00 70 1012.4
20260509110016 50 207 1.0 5.0 0.00 0.00 0.00 70 1012.2
20260509105516 50 207 1.0 6.0 0.00 0.00 0.00 71 1012.1
20260509105015 50 209 3.0 6.0 0.00 0.00 0.00 72 1012.1
20260509104530 49 213 1.0 3.0 0.00 0.00 0.00 74 1012.2
20260509104018 48 213 0.0 3.0 0.00 0.00 0.00 76 1012.3
20260509103518 47 214 0.0 4.0 0.00 0.00 0.00 78 1012.2
20260509103021 46 214 0.0 4.0 0.00 0.00 0.00 78 1012.1
20260509102523 46 214 1.0 2.0 0.00 0.00 0.00 75 1012.2
20260509102019 47 214 1.0 2.0 0.00 0.00 0.00 72 1012.1
20260509101520 48 214 0.0 0.0 0.00 0.00 0.00 72 1012.1
20260509101018 49 214 0.0 0.0 0.00 0.00 0.00 72 1012.2
20260509100517 49 214 0.0 0.0 0.00 0.00 0.00 72 1012.3
20260509100030 49 214 0.0 2.0 0.00 0.00 0.00 72 1012.4
20260509095525 49 214 0.0 3.0 0.00 0.00 0.00 71 1012.5
20260509095020 49 214 0.0 3.0 0.00 0.00 0.00 71 1012.3
20260509094523 49 214 0.0 1.0 0.00 0.00 0.00 71 1012.3
20260509094020 50 214 0.0 0.0 0.00 0.00 0.00 70 1012.4
20260509093520 50 214 0.0 0.0 0.00 0.00 0.00 70 1012.3
20260509093020 50 214 0.0 0.0 0.00 0.00 0.00 70 1012.3
20260509092518 50 214 0.0 0.0 0.00 0.00 0.00 69 1012.2
20260509092018 50 214 0.0 0.0 0.00 0.00 0.00 69 1012.2
20260509091522 51 214 0.0 0.0 0.00 0.00 0.00 68 1012.1
20260509091022 51 214 0.0 1.0 0.00 0.00 0.00 67 1012.0
20260509090522 51 214 0.0 2.0 0.00 0.00 0.00 66 1012.1
20260509090023 52 214 0.0 3.0 0.00 0.00 0.00 66 1012.1
20260509085522 52 214 0.0 3.0 0.00 0.00 0.00 66 1012.1
20260509085024 52 214 2.0 5.0 0.00 0.00 0.00 66 1012.1
20260509084511 52 214 2.0 5.0 0.00 0.00 0.00 65 1012.0
20260509084007 53 215 3.0 5.0 0.00 0.00 0.00 65 1012.0
20260509083505 53 215 2.0 5.0 0.00 0.00 0.00 65 1012.0
20260509083004 53 218 4.0 8.0 0.00 0.00 0.00 66 1012.1
20260509082507 52 217 4.0 8.0 0.00 0.00 0.00 68 1012.1
20260509082004 51 219 3.0 5.0 0.00 0.00 0.00 70 1012.1
20260509081508 50 217 2.0 3.0 0.00 0.00 0.00 69 1012.1
20260509081005 50 217 1.0 3.0 0.00 0.00 0.00 68 1012.1
20260509080504 51 217 1.0 3.0 0.00 0.00 0.00 68 1012.2
20260509080010 51 217 1.0 3.0 0.00 0.00 0.00 68 1012.2
20260509075512 51 217 1.0 3.0 0.00 0.00 0.00 67 1012.2
20260509075009 51 217 0.0 3.0 0.00 0.00 0.00 66 1012.3
20260509074509 52 217 1.0 2.0 0.00 0.00 0.00 65 1012.3
20260509074007 52 217 1.0 3.0 0.00 0.00 0.00 64 1012.5
20260509073506 53 217 1.0 3.0 0.00 0.00 0.00 63 1012.5
20260509073010 53 217 2.0 3.0 0.00 0.00 0.00 62 1012.6
20260509072510 54 217 0.0 3.0 0.00 0.00 0.00 61 1012.6
20260509072008 54 217 0.0 3.0 0.00 0.00 0.00 62 1012.5
20260509071516 54 218 0.0 5.0 0.00 0.00 0.00 62 1012.6
20260509071009 54 217 1.0 6.0 0.00 0.00 0.00 61 1012.6
20260509070509 54 217 2.0 6.0 0.00 0.00 0.00 60 1012.5
20260509070010 54 278 2.0 4.0 0.00 0.00 0.00 59 1012.4
20260509065515 55 278 0.0 3.0 0.00 0.00 0.00 58 1012.7
20260509065008 56 278 1.0 5.0 0.00 0.00 0.00 57 1012.7
20260509064513 56 276 2.0 7.0 0.00 0.00 0.00 56 1012.7
20260509064011 56 196 3.0 7.0 0.00 0.00 0.00 56 1012.5
20260509063511 56 176 3.0 7.0 0.00 0.00 0.00 55 1012.5
20260509063014 56 191 4.0 7.0 0.00 0.00 0.00 56 1012.5
20260509062517 56 186 3.0 9.0 0.00 0.00 0.00 56 1012.5
20260509062012 56 176 4.0 9.0 0.00 0.00 0.00 56 1012.6